Weather History for KGMU - January, 2013

Change the Weather History Date:

Tuesday, January 1, 2013

  Actual Average Record
Temperature  
Mean Temperature 48 °F -  
Max Temperature 50 °F 51 °F 68 °F (2005)
Min Temperature 46 °F 33 °F 19 °F (1998)
Degree Days  
Heating Degree Days 17    
Moisture  
Dew Point 43 °F    
Average Humidity 85    
Maximum Humidity 100    
Minimum Humidity 42    
Precipitation  
Precipitation 0.43 in - - ()
Sea Level Pressure  
Sea Level Pressure 30.03 in    
Wind  
Wind Speed 5 mph (WSW)    
Max Wind Speed 12 mph    
Max Gust Speed -    
Visibility 5 miles    
Events Rain    
Averages and records for this station are not official NWS values.
T = Trace of Precipitation, MM = Missing Value Source: NWS Daily Summary

Daily Weather History Graph

Daily Weather History Graph

Search for Another Location

Airport or City:

Trip Planner

Search our weather history database for the weather conditions in past years. The results will help you decide how hot, cold, wet, or windy it might be!

Date:

Astronomy

Jan. 01, 2013 Rise Set
Actual Time 7:37 AM EST 5:29 PM EST
Civil Twilight 7:09 AM EST 5:57 PM EST
Nautical Twilight 6:37 AM EST 6:28 PM EST
Astronomical Twilight 6:06 AM EST 6:59 PM EST
Moon 9:47 PM EST (1/1) 9:58 AM EST (1/1)
Length of Visible Light 10h 48m
Length of Day
9h 52m
Waning Gibbous, 83% of the Moon is Illuminated
Jan 1
Waning Gibbous
Jan 4
Last Quarter
Jan 11
New
Jan 18
First Quarter
Jan 26
Full

Hourly Weather History & Observations

Time (EST) Temp. Windchill Dew Point Humidity Pressure Visibility Wind Dir Wind Speed Gust Speed Precip Events Conditions
12:53 AM 48.0 °F - 26.1 °F 42% 30.10 in 10.0 mi SW 10.4 mph - N/A   Overcast
1:53 AM 48.0 °F - 27.0 °F 44% 30.08 in 10.0 mi SW 11.5 mph - N/A   Partly Cloudy
2:53 AM 48.0 °F - 28.0 °F 46% 30.10 in 10.0 mi SW 11.5 mph - N/A   Clear
3:53 AM 46.0 °F 41.9 °F 28.0 °F 50% 30.09 in 10.0 mi SW 8.1 mph - N/A   Scattered Clouds
4:53 AM 46.0 °F 42.5 °F 28.9 °F 51% 30.08 in 10.0 mi SW 6.9 mph - N/A   Mostly Cloudy
5:53 AM 46.9 °F - 30.0 °F 52% 30.06 in 10.0 mi SW 8.1 mph - N/A   Overcast
6:53 AM 48.0 °F - 33.1 °F 56% 30.08 in 10.0 mi WSW 6.9 mph - N/A   Overcast
7:53 AM 50.0 °F - 39.0 °F 66% 30.10 in 10.0 mi WSW 8.1 mph - 0.00 in   Overcast
8:30 AM 48.2 °F - 44.6 °F 87% 30.09 in 2.5 mi WNW 3.5 mph - 0.01 in Rain Light Rain
8:37 AM 48.2 °F - 44.6 °F 87% 30.08 in 4.0 mi Calm Calm - 0.01 in Rain Light Rain
8:49 AM 48.2 °F - 44.6 °F 87% 30.09 in 5.0 mi Calm Calm - 0.01 in Rain Light Rain
8:53 AM 48.9 °F - 45.0 °F 86% 30.10 in 4.0 mi Calm Calm - 0.02 in Rain Light Rain
9:45 AM 46.4 °F - 44.6 °F 93% 30.09 in 2.5 mi Calm Calm - 0.02 in Rain Light Rain
10:19 AM 46.4 °F 45.2 °F 44.6 °F 93% 30.09 in 2.5 mi NW 3.5 mph - 0.01 in Rain Light Rain
10:23 AM 46.4 °F - 44.6 °F 93% 30.09 in 3.0 mi Calm Calm - 0.01 in Rain Light Rain
10:53 AM 48.0 °F - 46.0 °F 93% 30.10 in 4.0 mi Calm Calm - 0.01 in Rain Light Rain
11:02 AM 48.2 °F - 46.4 °F 93% 30.09 in 4.0 mi West 3.5 mph - 0.01 in Rain Light Rain
11:53 AM 50.0 °F - 48.0 °F 93% 30.07 in 3.0 mi SW 6.9 mph - 0.01 in Rain Light Rain
12:53 PM 50.0 °F - 48.0 °F 93% 30.04 in 3.0 mi WNW 3.5 mph - 0.00 in Rain Light Rain
1:18 PM 50.0 °F - 48.2 °F 94% 30.04 in 2.5 mi West 3.5 mph - 0.01 in Rain Light Rain
2:00 PM 50.0 °F - 48.2 °F 94% 30.02 in 3.0 mi WNW 3.5 mph - 0.00 in Rain Light Rain
2:53 PM 50.0 °F - 48.0 °F 93% 30.00 in 4.0 mi Calm Calm - 0.02 in Rain Light Rain
3:53 PM 50.0 °F - 48.0 °F 93% 30.01 in 2.5 mi SW 4.6 mph - 0.05 in Rain Rain
4:08 PM 50.0 °F - 48.2 °F 94% 30.00 in 3.0 mi SSW 5.8 mph - 0.01 in Rain Light Rain
4:53 PM 50.0 °F - 48.0 °F 93% 30.01 in 4.0 mi SW 5.8 mph - 0.04 in Rain Light Rain
5:53 PM 50.0 °F - 48.0 °F 93% 29.98 in 7.0 mi Calm Calm - 0.02 in Rain Light Rain
6:53 PM 48.9 °F - 48.0 °F 97% 29.99 in 6.0 mi SW 3.5 mph - 0.01 in Rain Light Rain
7:53 PM 48.9 °F - 48.0 °F 97% 29.99 in 4.0 mi Calm Calm - 0.03 in Rain Light Rain
8:53 PM 48.9 °F - 48.0 °F 97% 29.98 in 4.0 mi Calm Calm - 0.03 in Rain Light Rain
9:00 PM 48.2 °F - 48.2 °F 100% 29.98 in 4.0 mi Calm Calm - 0.00 in Rain Light Rain
9:33 PM 48.2 °F - 48.2 °F 100% 29.97 in 2.5 mi Calm Calm - 0.03 in Rain Rain
9:53 PM 48.9 °F - 46.9 °F 93% 29.96 in 2.5 mi Calm Calm - 0.06 in Rain Rain
10:02 PM 48.2 °F - 48.2 °F 100% 29.96 in 3.0 mi Calm Calm - 0.00 in Rain Light Rain
10:33 PM 48.2 °F - 48.2 °F 100% 29.96 in 2.5 mi Calm Calm - 0.03 in Rain Rain
10:53 PM 48.9 °F - 48.0 °F 97% 29.96 in 3.0 mi Calm Calm - 0.05 in Rain Light Rain
11:02 PM 48.2 °F - 48.2 °F 100% 29.96 in 2.5 mi Calm Calm - 0.01 in Rain Light Rain
11:48 PM 48.2 °F - 48.2 °F 100% 29.95 in 3.0 mi Calm Calm - 0.08 in Rain Light Rain
11:53 PM 50.0 °F - 46.9 °F 89% 29.95 in 3.0 mi Calm Calm - 0.08 in Rain Light Rain